Amelia, Virginia, United States
Lat: 37.37N, Lon: 77.92W
Wx Zone: VAZ068
Local Info
Past Weather Observations for Saturday, September 27, 2014

NOTE: This archive is for the closest National Weather Service station to Amelia. Information may differ from the station used for current weather conditions.

Click here for Long-term Archive

Time Weather Temperature Dewpoint Humidity Pressure Winds Precip Visibility
23:55
Clear
Fog And Mist
50°F / 10°C 50°F / 10°C 100% 30.21 in
(1023 mb)
Calm - 4SM
23:35
Clear
Fog And Mist
52°F / 11°C 52°F / 11°C 100% 30.21 in
(1023 mb)
Calm - 2SM
23:15
Clear
Fog And Mist
54°F / 12°C 52°F / 11°C 94% 30.24 in
(1024 mb)
Calm - 2SM
22:55
Clear
52°F / 11°C 52°F / 11°C 100% 30.24 in
(1024 mb)
Calm - 7SM
22:35
Clear
54°F / 12°C 52°F / 11°C 94% 30.24 in
(1024 mb)
Calm - 7SM
22:15
Clear
54°F / 12°C 52°F / 11°C 94% 30.24 in
(1024 mb)
Calm - 10SM
21:55
Clear
54°F / 12°C 54°F / 12°C 100% 30.24 in
(1024 mb)
Calm - 10SM
21:35
Clear
55°F / 13°C 54°F / 12°C 94% 30.21 in
(1023 mb)
Calm - 7SM
21:15
Clear
55°F / 13°C 55°F / 13°C 100% 30.21 in
(1023 mb)
Calm - 10SM
20:55
Clear
57°F / 14°C 55°F / 13°C 94% 30.21 in
(1023 mb)
Calm - 10SM
20:35
Clear
57°F / 14°C 55°F / 13°C 94% 30.21 in
(1023 mb)
Calm - 10SM
20:15
Clear
57°F / 14°C 55°F / 13°C 94% 30.21 in
(1023 mb)
Calm - 10SM
19:55
Clear
59°F / 15°C 57°F / 14°C 94% 30.21 in
(1023 mb)
Calm - 10SM
19:35
Clear
57°F / 14°C 55°F / 13°C 94% 30.21 in
(1023 mb)
Calm - 10SM
19:15
Clear
59°F / 15°C 57°F / 14°C 94% 30.21 in
(1023 mb)
Calm - 10SM
19:05
Clear
59°F / 15°C 57°F / 14°C 94% 30.21 in
(1023 mb)
Calm - 10SM
19:00
Clear
59°F / 15°C 57°F / 14°C 94% 30.21 in
(1023 mb)
Calm - 10SM
18:46
Clear
63°F / 17°C 55°F / 13°C 77% 30.18 in
(1022 mb)
Calm - 10SM
18:25
Clear
64°F / 18°C 55°F / 13°C 73% 30.18 in
(1022 mb)
Calm - 10SM
18:06
Clear
64°F / 18°C 55°F / 13°C 73% 30.18 in
(1022 mb)
N 3.5 mph
(N 6 kph)
- 10SM
17:45
Clear
72°F / 22°C 54°F / 12°C 53% 30.18 in
(1022 mb)
NNE 4.6 mph
(NNE 7 kph)
- 10SM
17:25
Clear
73°F / 23°C 54°F / 12°C 50% 30.18 in
(1022 mb)
NE 5.8 mph
(NE 9 kph)
- 10SM
17:05
Clear
75°F / 24°C 54°F / 12°C 47% 30.18 in
(1022 mb)
NE 8.1 mph
(NE 13 kph)
- 10SM
16:45
Clear
75°F / 24°C 54°F / 12°C 47% 30.18 in
(1022 mb)
NE 6.9 mph
(NE 11 kph)
- 10SM
16:25
Clear
75°F / 24°C 54°F / 12°C 47% 30.18 in
(1022 mb)
NE 6.9 mph
(NE 11 kph)
- 10SM
16:13
Clear
75°F / 24°C 54°F / 12°C 47% 30.18 in
(1022 mb)
ENE 5.8 mph
(ENE 9 kph)
- 10SM
15:15
Partly Cloudy
77°F / 25°C 54°F / 12°C 44% 30.18 in
(1022 mb)
NE 6.9 mph
(NE 11 kph)
- 10SM
14:55
Partly Cloudy
77°F / 25°C 55°F / 13°C 47% 30.18 in
(1022 mb)
N 5.8 mph
(N 9 kph)
- 10SM
14:35
Partly Cloudy
77°F / 25°C 55°F / 13°C 47% 30.18 in
(1022 mb)
N 9.2 mph
(N 15 kph)
- 10SM
14:15
Partly Cloudy
77°F / 25°C 55°F / 13°C 47% 30.18 in
(1022 mb)
NNW 6.9 mph
(NNW 11 kph)
- 10SM
13:55
Clear
77°F / 25°C 55°F / 13°C 47% 30.18 in
(1022 mb)
N 5.8 mph
(N 9 kph)
- 10SM
13:35
Partly Cloudy
75°F / 24°C 54°F / 12°C 47% 30.21 in
(1023 mb)
NE 8.1 mph
(NE 13 kph)
- 10SM
13:15
Mostly Cloudy
75°F / 24°C 55°F / 13°C 50% 30.21 in
(1023 mb)
N 10.4 mph
(N 17 kph)
- 10SM
12:55
Partly Cloudy
75°F / 24°C 55°F / 13°C 50% 30.21 in
(1023 mb)
N 6.9 mph
(N 11 kph)
- 10SM
12:35
Partly Cloudy
75°F / 24°C 55°F / 13°C 50% 30.21 in
(1023 mb)
N 10.4 mph
(N 17 kph)
- 10SM
12:15
Partly Cloudy
75°F / 24°C 55°F / 13°C 50% 30.21 in
(1023 mb)
NNE 5.8 mph
(NNE 9 kph)
- 10SM
11:55
Partly Cloudy
73°F / 23°C 55°F / 13°C 53% 30.24 in
(1024 mb)
NNE 10.4 mph
(NNE 17 kph)
- 10SM
11:35
Partly Cloudy
73°F / 23°C 55°F / 13°C 53% 30.24 in
(1024 mb)
NE 8.1 mph
(NE 13 kph)
- 10SM
11:15
Clear
73°F / 23°C 55°F / 13°C 53% 30.24 in
(1024 mb)
NNE 9.2 mph
(NNE 15 kph)
- 10SM
10:55
Partly Cloudy
72°F / 22°C 55°F / 13°C 57% 30.24 in
(1024 mb)
N 5.8 mph
(N 9 kph)
- 10SM
10:35
Partly Cloudy
72°F / 22°C 57°F / 14°C 61% 30.24 in
(1024 mb)
NE 8.1 mph
(NE 13 kph)
- 10SM
10:15
Partly Cloudy
72°F / 22°C 57°F / 14°C 61% 30.24 in
(1024 mb)
NNE 8.1 mph
(NNE 13 kph)
- 10SM
09:55
Partly Cloudy
70°F / 21°C 57°F / 14°C 64% 30.24 in
(1024 mb)
NE 11.5 mph
(NE 19 kph)
- 10SM
09:35
Clear
70°F / 21°C 57°F / 14°C 64% 30.24 in
(1024 mb)
NNE 8.1 mph
(NNE 13 kph)
- 10SM
09:15
Clear
68°F / 20°C 57°F / 14°C 69% 30.24 in
(1024 mb)
N 8.1 mph
(N 13 kph)
- 10SM
08:55
Clear
66°F / 19°C 59°F / 15°C 78% 30.24 in
(1024 mb)
N 8.1 mph
(N 13 kph)
- 10SM
08:35
Partly Cloudy
66°F / 19°C 59°F / 15°C 78% 30.24 in
(1024 mb)
NE 10.4 mph
(NE 17 kph)
- 10SM
08:15
Partly Cloudy
64°F / 18°C 59°F / 15°C 83% 30.24 in
(1024 mb)
N 9.2 mph
(N 15 kph)
- 10SM
07:55
Mostly Cloudy
63°F / 17°C 59°F / 15°C 88% 30.24 in
(1024 mb)
N 9.2 mph
(N 15 kph)
- 10SM
07:35
Partly Cloudy
63°F / 17°C 59°F / 15°C 88% 30.24 in
(1024 mb)
N 6.9 mph
(N 11 kph)
- 10SM
07:15
Mostly Cloudy
63°F / 17°C 59°F / 15°C 88% 30.24 in
(1024 mb)
N 4.6 mph
(N 7 kph)
- 10SM
06:55
Overcast
61°F / 16°C 59°F / 15°C 94% 30.24 in
(1024 mb)
N 3.5 mph
(N 6 kph)
- 10SM
06:35
Overcast
61°F / 16°C 59°F / 15°C 94% 30.24 in
(1024 mb)
N 4.6 mph
(N 7 kph)
- 10SM
06:15
Overcast
61°F / 16°C 59°F / 15°C 94% 30.24 in
(1024 mb)
N 5.8 mph
(N 9 kph)
- 7SM
05:55
Overcast
61°F / 16°C 59°F / 15°C 94% 30.24 in
(1024 mb)
N 5.8 mph
(N 9 kph)
- 10SM
05:35
Overcast
63°F / 17°C 59°F / 15°C 88% 30.21 in
(1023 mb)
N 5.8 mph
(N 9 kph)
- 10SM
05:15
Overcast
63°F / 17°C 61°F / 16°C 94% 30.24 in
(1024 mb)
N 5.8 mph
(N 9 kph)
- 10SM
04:55
Overcast
63°F / 17°C 61°F / 16°C 94% 30.21 in
(1023 mb)
N 6.9 mph
(N 11 kph)
- 10SM
04:35
Overcast
63°F / 17°C 61°F / 16°C 94% 30.21 in
(1023 mb)
N 5.8 mph
(N 9 kph)
- 10SM
04:15
Overcast
63°F / 17°C 61°F / 16°C 94% 30.21 in
(1023 mb)
NNE 4.6 mph
(NNE 7 kph)
- 10SM
03:55
Overcast
63°F / 17°C 61°F / 16°C 94% 30.21 in
(1023 mb)
N 6.9 mph
(N 11 kph)
- 10SM
03:35
Overcast
63°F / 17°C 61°F / 16°C 94% 30.21 in
(1023 mb)
NNE 5.8 mph
(NNE 9 kph)
- 10SM
03:15
Overcast
63°F / 17°C 61°F / 16°C 94% 30.21 in
(1023 mb)
N 3.5 mph
(N 6 kph)
- 10SM
02:55
Overcast
63°F / 17°C 61°F / 16°C 94% 30.21 in
(1023 mb)
N 9.2 mph
(N 15 kph)
- 10SM
02:35
Overcast
63°F / 17°C 61°F / 16°C 94% 30.21 in
(1023 mb)
N 5.8 mph
(N 9 kph)
- 10SM
02:15
Overcast
63°F / 17°C 61°F / 16°C 94% 30.21 in
(1023 mb)
N 6.9 mph
(N 11 kph)
- 10SM
01:55
Overcast
Light Rain
63°F / 17°C 61°F / 16°C 94% 30.21 in
(1023 mb)
N 9.2 mph
(N 15 kph)
0.01 in
(0.25 mm)
5SM
01:35
Overcast
Light Rain
63°F / 17°C 61°F / 16°C 94% 30.21 in
(1023 mb)
N 9.2 mph
(N 15 kph)
0.01 in
(0.25 mm)
3SM
01:15
Overcast
Light Rain
63°F / 17°C 61°F / 16°C 94% 30.24 in
(1024 mb)
NNE 8.1 mph
(NNE 13 kph)
- 3SM
00:55
Overcast
Light Rain
63°F / 17°C 61°F / 16°C 94% 30.24 in
(1024 mb)
N 9.2 mph
(N 15 kph)
- 3SM
00:35
Overcast
Light Rain
63°F / 17°C 61°F / 16°C 94% 30.24 in
(1024 mb)
N 9.2 mph
(N 15 kph)
- 4SM
00:15
Overcast
Light Rain
63°F / 17°C 61°F / 16°C 94% 30.24 in
(1024 mb)
N 5.8 mph
(N 9 kph)
- 3SM
Time Weather Temperature Dewpoint Humidity Pressure Winds Precip Visibility


Weather for websites

WeatherForYou.com, LLC is not responsible for any damages or problems caused by this service. Current weather conditions are obtained from the closest station including government and personal stations which may have varying degrees of accuracy. Weather forecasts are derived from the NOAA NDFD. Like all things, this site belongs to Jesus Christ... He just trusts me to maintain it. If you have any questions or comments email webmaster@weatherforyou.com

Copyright © 2014, WeatherForYou.com LLC. All rights reserved.